STARLINK-11415, 62592

Orbit data source: Space-Track

STARLINK-11415, 62592 is a payload satellite owned by SpaceX/Seattle (US) in LEO that was launched on Mon, 13 Jan 2025 UTC via an FALCON 9 launch vehicle from the Air Force Eastern Test Range (AFETR). Payload-class satellites include a variety of spacecraft equipped with specific instruments for various scientific and technological missions. These include communications satellites like Starlink; space stations such as the ISS; scientific satellites like the Hubble; Earth observation satellites from companies like Planet Labs, Umbra, and HawkEye 360; GPS; miniature CubeSats for education and research; and military/defense satellites.

Loading next visibility...
Identifier
62592, 2025-008F
Orbit
LEO
Country
Flag of USUS
Related business
Manufacturer
SpaceX/Seattle
Mission
Operational Commercial Communications
Bus & Motor
STARLINK V2M, Unknown motor
Mass
730 kg wet, ~700 kg dry
Launch date (UTC)
2025-01-13 (8 months ago)
Launch vehicle
FALCON 9
Launch site
Air Force Eastern Test Range (AFETR)
Object type
Payload
Rocket body
Debris
Shape & HBR
Box + 2 Pan, 14.5 m
Radar Cross Section
36.964 m², Large (>1 m²)

Expand to show TLE details & history
Last TLE update: 2 days ago

TLE from 2 days ago
0 STARLINK-11415
1 62592U 25008F   25241.24514220  .00286097  00000-0  21485-2 0  9997
2 62592  42.9997 206.5202 0002917 257.4618 102.5924 15.70935333 36950
Epoch: 2025-08-29T05:53Z
TLE epoch observation values (Epoch: 2025-08-29T05:53:00.286Z)
Latitude
0.00004°
Longitude
140.57249°
Altitude
356.422 km
Speed
7.697 km/s
True Right ascension
13h 46m 04s
True Declination
0° 00' 00"
Sunlit
Object was in daylight at epoch
Visualization orbit readout
Latitude
Unknown
Longitude
Unknown
Altitude
Unknown
Speed
Unknown
Apparent Right ascension
Unknown
Apparent Declination
Unknown
Sunlit
N/A
Visualization observer readout
Local Sidereal Time
16:02:25
Azimuth
Unknown
Elevation
Unknown
Doppler factor
Unknown
Orbital elements
Apogee altitude
360.169 km
Perigee altitude
356.239 km
Semi-major axis
6,736.341 km
Eccentricity
0.00029
Inclination
42.9997°
RAAN
206.5202°
Arg. of periapsis
257.4618°
True anomaly
102.62502°
Mean anomaly
102.5924°
Eccentric anomaly
102.60871°
Mean motion
3.92561 °/min
Orbital period
91.71 mins
BSTAR
0.0021485
Loading maneuver chart data...
Computing Atmospheric mass density...
Loading historical data...
Loading historical data...
Loading historical data...
Loading historical data...
Loading historical data...
Loading historical data...
Loading historical data...

Documentation

Showing up to 5 results
|